| time (UTC) | temp F | wind direction | speed MPH | gust MPH | rain 1hr in | rain 24hr in | rain mn in | humidity % | barometer mb |
| 20260905040041 | 55 | 185 | 1.0 | 3.0 | 0.00 | 0.01 | 0.01 | 91 | 1017.1 |
| 20260905034531 | 55 | 180 | 0.0 | 3.0 | 0.00 | 0.01 | 0.01 | 90 | 1017.0 |
| 20260905033036 | 56 | 133 | 1.0 | 3.0 | 0.00 | 0.01 | 0.01 | 90 | 1016.8 |
| 20260905024531 | 57 | 196 | 2.0 | 4.0 | 0.00 | 0.01 | 0.01 | 88 | 1016.5 |
| 20260905014602 | 61 | 341 | 1.0 | 4.0 | 0.00 | 0.01 | 0.01 | 80 | 1016.0 |
| 20260905013032 | 62 | 360 | 0.0 | 0.0 | 0.00 | 0.01 | 0.01 | 76 | 1015.9 |
| 20260905011529 | 62 | 360 | 1.0 | 3.0 | 0.00 | 0.01 | 0.01 | 75 | 1015.8 |
| 20260905010054 | 63 | 39 | 0.0 | 4.0 | 0.00 | 0.01 | 0.01 | 77 | 1015.8 |
| 20260905004531 | 63 | 56 | 3.0 | 6.0 | 0.00 | 0.01 | 0.01 | 79 | 1015.7 |
| 20260905003033 | 62 | 34 | 2.0 | 5.0 | 0.00 | 0.01 | 0.01 | 81 | 1015.6 |
| 20260905001531 | 62 | 345 | 1.0 | 3.0 | 0.00 | 0.01 | 0.01 | 82 | 1015.6 |
| 20260905000105 | 61 | 202 | 0.0 | 0.0 | 0.00 | 0.01 | 0.01 | 82 | 1015.5 |
| 20260904231531 | 60 | 190 | 0.0 | 4.0 | 0.00 | 0.01 | 0.01 | 79 | 1015.6 |
| 20260904230031 | 64 | 196 | 4.0 | 9.0 | 0.00 | 0.01 | 0.01 | 70 | 1015.6 |
| 20260904221531 | 66 | 197 | 1.0 | 3.0 | 0.00 | 0.01 | 0.01 | 64 | 1015.3 |
| 20260904220032 | 66 | 172 | 0.0 | 3.0 | 0.00 | 0.01 | 0.01 | 65 | 1015.2 |
| 20260904214533 | 64 | 180 | 0.0 | 2.0 | 0.00 | 0.01 | 0.01 | 69 | 1015.1 |
| 20260904211555 | 63 | 181 | 1.0 | 3.0 | 0.00 | 0.02 | 0.01 | 74 | 1015.1 |
| 20260904210103 | 63 | 202 | 0.0 | 1.0 | 0.00 | 0.02 | 0.01 | 71 | 1015.0 |
| 20260904204531 | 63 | 200 | 0.0 | 3.0 | 0.00 | 0.02 | 0.01 | 69 | 1015.0 |
| 20260904203107 | 64 | 156 | 1.0 | 4.0 | 0.00 | 0.02 | 0.01 | 70 | 1015.2 |
| 20260904201529 | 62 | 129 | 1.0 | 4.0 | 0.00 | 0.02 | 0.01 | 72 | 1015.2 |
| 20260904200031 | 61 | 121 | 0.0 | 2.0 | 0.00 | 0.02 | 0.01 | 73 | 1015.4 |
| 20260904193029 | 61 | 82 | 1.0 | 3.0 | 0.00 | 0.02 | 0.01 | 72 | 1015.6 |
| 20260904191531 | 61 | 54 | 0.0 | 3.0 | 0.00 | 0.02 | 0.01 | 73 | 1015.7 |
| 20260904190030 | 60 | 88 | 0.0 | 3.0 | 0.00 | 0.02 | 0.01 | 77 | 1015.8 |
| 20260904184530 | 59 | 31 | 1.0 | 4.0 | 0.00 | 0.02 | 0.01 | 80 | 1015.9 |
| 20260904183031 | 58 | 353 | 0.0 | 3.0 | 0.00 | 0.02 | 0.01 | 83 | 1015.8 |
| 20260904181533 | 56 | 137 | 0.0 | 3.0 | 0.00 | 0.02 | 0.01 | 85 | 1015.8 |
| 20260904180028 | 56 | 112 | 0.0 | 1.0 | 0.00 | 0.02 | 0.01 | 86 | 1015.8 |
| 20260904174530 | 56 | 163 | 0.0 | 2.0 | 0.00 | 0.02 | 0.01 | 87 | 1015.8 |
| 20260904173031 | 56 | 180 | 0.0 | 0.0 | 0.00 | 0.02 | 0.01 | 88 | 1015.8 |
| 20260904171644 | 56 | 180 | 0.0 | 3.0 | 0.00 | 0.02 | 0.01 | 89 | 1015.8 |
| 20260904163032 | 55 | 186 | 0.0 | 2.0 | 0.00 | 0.02 | 0.01 | 94 | 1015.6 |
| 20260904161606 | 54 | 121 | 1.0 | 3.0 | 0.00 | 0.02 | 0.01 | 95 | 1015.6 |
| 20260904160032 | 54 | 136 | 1.0 | 3.0 | 0.00 | 0.02 | 0.01 | 96 | 1015.6 |
| 20260904154604 | 54 | 135 | 0.0 | 1.0 | 0.00 | 0.02 | 0.01 | 97 | 1015.5 |
| 20260904153030 | 53 | 135 | 0.0 | 2.0 | 0.00 | 0.02 | 0.01 | 97 | 1015.4 |
| 20260904151533 | 53 | 182 | 0.0 | 2.0 | 0.00 | 0.02 | 0.01 | 97 | 1015.2 |
| 20260904150145 | 52 | 193 | 0.0 | 3.0 | 0.00 | 0.02 | 0.01 | 97 | 1015.2 |
| 20260904144603 | 52 | 180 | 0.0 | 1.0 | 0.00 | 0.02 | 0.01 | 97 | 1015.1 |
| 20260904141648 | 51 | 180 | 0.0 | 0.0 | 0.01 | 0.02 | 0.01 | 97 | 1014.8 |
| 20260904140144 | 50 | 180 | 0.0 | 0.0 | 0.01 | 0.02 | 0.01 | 97 | 1014.7 |
| 20260904134605 | 50 | 180 | 0.0 | 1.0 | 0.01 | 0.02 | 0.00 | 96 | 1014.5 |
| 20260904133145 | 51 | 180 | 0.0 | 1.0 | 0.00 | 0.01 | 0.00 | 96 | 1014.4 |
| 20260904130030 | 50 | 180 | 0.0 | 2.0 | 0.00 | 0.01 | 0.00 | 96 | 1014.0 |
| 20260904123032 | 50 | 180 | 0.0 | 2.0 | 0.00 | 0.01 | 0.00 | 96 | 1014.0 |
| 20260904121531 | 50 | 180 | 0.0 | 0.0 | 0.00 | 0.01 | 0.00 | 96 | 1013.9 |
| 20260904120144 | 50 | 180 | 0.0 | 2.0 | 0.00 | 0.01 | 0.00 | 96 | 1013.8 |
| 20260904114530 | 51 | 180 | 1.0 | 2.0 | 0.00 | 0.01 | 0.00 | 96 | 1013.6 |
| 20260904113144 | 51 | 180 | 0.0 | 3.0 | 0.00 | 0.01 | 0.00 | 96 | 1013.6 |
| 20260904111530 | 51 | 180 | 0.0 | 0.0 | 0.00 | 0.01 | 0.00 | 96 | 1013.5 |
| 20260904110029 | 51 | 180 | 0.0 | 0.0 | 0.00 | 0.01 | 0.00 | 96 | 1013.3 |
| 20260904104530 | 51 | 180 | 0.0 | 0.0 | 0.00 | 0.01 | 0.00 | 96 | 1013.3 |
| 20260904103145 | 51 | 180 | 0.0 | 0.0 | 0.00 | 0.01 | 0.00 | 96 | 1013.1 |
| 20260904101530 | 50 | 180 | 0.0 | 0.0 | 0.00 | 0.01 | 0.00 | 96 | 1012.9 |
| 20260904100029 | 50 | 180 | 0.0 | 0.0 | 0.00 | 0.01 | 0.00 | 96 | 1012.8 |
| 20260904094531 | 50 | 180 | 0.0 | 0.0 | 0.00 | 0.01 | 0.00 | 96 | 1012.8 |
| 20260904093028 | 50 | 180 | 0.0 | 1.0 | 0.00 | 0.01 | 0.00 | 96 | 1012.7 |
| 20260904090030 | 49 | 198 | 0.0 | 2.0 | 0.00 | 0.01 | 0.00 | 95 | 1012.6 |
| 20260904084530 | 50 | 202 | 0.0 | 1.0 | 0.00 | 0.01 | 0.00 | 95 | 1012.6 |
| 20260904083030 | 50 | 202 | 1.0 | 3.0 | 0.00 | 0.01 | 0.00 | 95 | 1012.5 |
| 20260904081530 | 50 | 202 | 1.0 | 3.0 | 0.00 | 0.01 | 0.00 | 95 | 1012.4 |
| 20260904080032 | 50 | 183 | 0.0 | 2.0 | 0.00 | 0.01 | 0.00 | 95 | 1012.6 |
| 20260904074530 | 51 | 180 | 1.0 | 3.0 | 0.00 | 0.01 | 0.00 | 95 | 1012.5 |
| 20260904073108 | 50 | 180 | 0.0 | 2.0 | 0.00 | 0.01 | 0.00 | 94 | 1012.5 |
| 20260904071530 | 50 | 183 | 0.0 | 3.0 | 0.00 | 0.01 | 0.00 | 94 | 1012.5 |
| 20260904070034 | 50 | 198 | 0.0 | 3.0 | 0.00 | 0.01 | 0.00 | 94 | 1012.4 |
| 20260904064644 | 51 | 180 | 0.0 | 2.0 | 0.00 | 0.01 | 0.01 | 94 | 1012.4 |
| 20260904063032 | 51 | 180 | 0.0 | 1.0 | 0.00 | 0.01 | 0.01 | 94 | 1012.4 |
| 20260904061605 | 51 | 180 | 0.0 | 3.0 | 0.00 | 0.01 | 0.01 | 93 | 1012.3 |
| 20260904060108 | 52 | 180 | 1.0 | 4.0 | 0.00 | 0.01 | 0.01 | 93 | 1012.3 |
| 20260904051530 | 52 | 180 | 2.0 | 4.0 | 0.00 | 0.01 | 0.01 | 92 | 1012.3 |
| 20260904050104 | 53 | 184 | 0.0 | 0.0 | 0.00 | 0.01 | 0.01 | 92 | 1012.4 |
| 20260904044532 | 53 | 202 | 0.0 | 2.0 | 0.00 | 0.01 | 0.01 | 92 | 1012.4 |